Flag for China Weather past 2 weeks in Tsingtao, Shandong, China

Now
82 °F

Passing clouds.


Feels Like: 88 °F
Forecast: 76 / 85 °F
Wind: 6 mph from Northeast

Location: Qingdao Airport

Current Time: Aug 1, 2014 at 8:37:35 AM

Latest Report: Aug 1, 2014 at 8:00 AM


Visibility: N/A

Pressure: 29.74 "Hg

Humidity: 74%

Dew point: 73 °F

Location of TsingtaoLocation

Historic Weather in Tsingtao — Graph

°F

Tsingtao temperature yesterday

Maximum temperature yesterday: 88 °F (at 3:00 PM)
Minimum temperature yesterday: 75 °F (at 12:00 AM)
Average temperature yesterday: 80 °F

Past Weeks' High & Low Weather Summary

 TemperatureHumidityPressure
High99 °F (Jul 19, 2:00 PM)94% (Jul 22, 6:00 PM)29.89 "Hg (Jul 22, 6:00 PM)
Low68 °F (Jul 26, 5:00 AM)36% (Jul 19, 12:00 PM)29.42 "Hg (Jul 25, 8:00 AM)
Average80 °F75%29.73 "Hg
* Reported Jul 17 7:00 AM — Aug 1 7:00 AM, Tsingtao, Weather by CustomWeather, © 2014

Note: Actual official high and low records may vary slightly from our data, if they occured in-between our weather recording intervals... More about our weather records

Advertising

Tsingtao weather history for previous 24 hours

 ConditionsComfort  
Time TempWeatherWind HumidityBarometerVisibility
7:00 AM
Aug 1
81 °FPassing clouds.3 mph79%29.71 "HgN/A
6:00 AM77 °FSunny.1 mph94%29.74 "Hg10 mi
5:00 AM75 °FClear.1 mph94%29.74 "Hg4 mi
4:00 AM77 °FClear.1 mph89%29.74 "Hg10 mi
3:00 AM77 °FClear.1 mph94%29.74 "Hg10 mi
2:00 AM77 °FClear.No wind94%29.74 "Hg10 mi
1:00 AM79 °FClear.1 mph89%29.74 "Hg10 mi
12:00 AM77 °FPassing clouds.1 mph94%29.74 "HgN/A
11:00 PM
Jul 31
79 °FPassing clouds.3 mph89%29.77 "HgN/A
10:00 PM79 °FPassing clouds.8 mph89%29.74 "HgN/A
9:00 PM79 °FPartly cloudy.8 mph89%29.74 "HgN/A
8:00 PM79 °FPartly cloudy.13 mph94%29.74 "HgN/A
7:00 PM79 °FPartly sunny.1 mph89%29.71 "HgN/A
6:00 PM81 °FLight rain. Partly sunny.10 mph89%29.68 "Hg4 mi
5:00 PM84 °FScattered clouds.13 mph74%29.68 "HgN/A
4:00 PM84 °FPassing clouds.13 mph79%29.71 "HgN/A
3:00 PM88 °FPassing clouds.10 mph70%29.71 "HgN/A
2:00 PM86 °FScattered clouds.8 mph75%29.71 "HgN/A
1:00 PM86 °FScattered clouds.6 mph75%29.74 "HgN/A
12:00 PM82 °FMostly cloudy.8 mph84%29.74 "Hg4 mi
11:00 AM84 °FMostly cloudy.10 mph79%29.74 "Hg4 mi
10:00 AM82 °FMostly cloudy.8 mph84%29.74 "Hg4 mi
9:00 AM81 °FFog.8 mph89%29.74 "Hg3 mi
8:00 AM79 °FFog.6 mph89%29.74 "Hg3 mi
Weather by CustomWeather, © 2014

See weather overviewHow to use our weather pages